When you browse on this site, cookies collect data to enhance your experience and personalize the content and advertising you see.
Visit our Privacy Policy to learn more. By continuing to use the site, you agree to this use of cookies and data.
  • In Austria
  • List of Countries
  • For 7 days
  • Water Temperature
  • Satellite Maps
  • Weather Map
  • News
  • Weather Widgets
  • user-avatar
    Login

    Hourly Weather Sydney

    Today, 20 March, Wednesday

    Time Temperature Precipitation Wind Pressure Humidity
    00:00 +21°C° 0.1 mm 2 mps 759 mmHg 89%
    01:00 +20°C° 0.1 mm 3 mps 759 mmHg 91%
    02:00 +20°C° 0 mm 3 mps 759 mmHg 91%
    03:00 +20°C° 0 mm 3 mps 758 mmHg 91%
    04:00 +20°C° 0 mm 2 mps 758 mmHg 92%
    05:00 +20°C° 0 mm 2 mps 759 mmHg 91%
    06:00 +20°C° 0 mm 3 mps 759 mmHg 90%
    07:00 +21°C° 0 mm 3 mps 759 mmHg 89%
    08:00 +22°C° 0 mm 3 mps 759 mmHg 82%
    09:00 +25°C° 0 mm 3 mps 759 mmHg 74%
    10:00 +26°C° 0 mm 4 mps 760 mmHg 69%
    11:00 +27°C° 0.7 mm 4 mps 759 mmHg 69%
    12:00 +27°C° 0.7 mm 4 mps 759 mmHg 68%
    13:00 +28°C° 0.7 mm 4 mps 759 mmHg 68%
    14:00 +27°C° 0.2 mm 4 mps 759 mmHg 69%
    15:00 +27°C° 0.2 mm 4 mps 758 mmHg 70%
    16:00 +26°C° 0 mm 4 mps 759 mmHg 73%
    17:00 +25°C° 0.2 mm 3 mps 759 mmHg 76%
    18:00 +25°C° 0.2 mm 3 mps 759 mmHg 80%
    19:00 +24°C° 0.2 mm 2 mps 760 mmHg 83%
    20:00 +24°C° 0 mm 2 mps 760 mmHg 84%
    21:00 +22°C° 0 mm 3 mps 760 mmHg 86%
    22:00 +22°C° 0 mm 3 mps 760 mmHg 87%
    23:00 +22°C° 0 mm 3 mps 760 mmHg 88%

    Tomorrow, 21 March, Thursday

    Time Temperature Precipitation Wind Pressure Humidity
    00:00 +21°C° 0 mm 3 mps 760 mmHg 89%
    01:00 +21°C° 0 mm 3 mps 760 mmHg 90%
    02:00 +21°C° 0 mm 4 mps 760 mmHg 90%
    03:00 +21°C° 0 mm 4 mps 760 mmHg 90%
    04:00 +21°C° 0 mm 4 mps 759 mmHg 90%
    05:00 +21°C° 0 mm 4 mps 760 mmHg 90%
    06:00 +21°C° 0 mm 4 mps 760 mmHg 89%
    07:00 +21°C° 0 mm 4 mps 761 mmHg 89%
    08:00 +22°C° 0.1 mm 4 mps 761 mmHg 83%
    09:00 +25°C° 0.1 mm 4 mps 761 mmHg 77%
    10:00 +26°C° 0.1 mm 4 mps 761 mmHg 71%
    11:00 +27°C° 0.2 mm 4 mps 761 mmHg 68%
    12:00 +28°C° 0.2 mm 5 mps 761 mmHg 66%
    13:00 +28°C° 0.2 mm 5 mps 760 mmHg 63%
    14:00 +28°C° 0 mm 5 mps 760 mmHg 63%
    15:00 +28°C° 0 mm 5 mps 760 mmHg 63%
    16:00 +27°C° 0 mm 5 mps 760 mmHg 63%
    17:00 +26°C° 0 mm 4 mps 760 mmHg 68%
    18:00 +25°C° 0 mm 4 mps 761 mmHg 74%
    19:00 +23°C° 0 mm 4 mps 761 mmHg 79%
    20:00 +24°C° 0 mm 3 mps 761 mmHg 81%
    21:00 +24°C° 0 mm 3 mps 762 mmHg 83%
    22:00 +22°C° 0 mm 3 mps 762 mmHg 85%
    23:00 +22°C° 0.1 mm 3 mps 762 mmHg 86%

    Day after tomorrow, 22 March, Friday

    Time Temperature Precipitation Wind Pressure Humidity
    00:00 +22°C° 0.1 mm 3 mps 762 mmHg 87%
    01:00 +21°C° 0.1 mm 3 mps 762 mmHg 88%
    02:00 +21°C° 0.1 mm 3 mps 761 mmHg 89%
    03:00 +21°C° 0.1 mm 3 mps 761 mmHg 89%
    04:00 +21°C° 0.1 mm 3 mps 761 mmHg 89%
    05:00 +21°C° 0.1 mm 3 mps 762 mmHg 88%
    06:00 +21°C° 0.1 mm 3 mps 762 mmHg 87%
    07:00 +21°C° 0.1 mm 3 mps 762 mmHg 86%
    08:00 +24°C° 0.1 mm 2 mps 762 mmHg 80%
    09:00 +25°C° 0.1 mm 2 mps 762 mmHg 73%
    10:00 +27°C° 0.1 mm 2 mps 763 mmHg 67%
    11:00 +27°C° 0.1 mm 2 mps 762 mmHg 65%
    12:00 +27°C° 0.1 mm 3 mps 762 mmHg 64%
    13:00 +28°C° 0.1 mm 3 mps 761 mmHg 62%
    14:00 +27°C° 0 mm 3 mps 761 mmHg 63%
    15:00 +27°C° 0 mm 3 mps 760 mmHg 65%
    16:00 +27°C° 0 mm 4 mps 760 mmHg 66%
    17:00 +26°C° 0 mm 3 mps 760 mmHg 69%
    18:00 +25°C° 0 mm 3 mps 761 mmHg 72%
    19:00 +24°C° 0 mm 3 mps 761 mmHg 75%
    20:00 +24°C° 0 mm 2 mps 761 mmHg 76%
    21:00 +24°C° 0 mm 1 mps 762 mmHg 77%
    22:00 +23°C° 0 mm 1 mps 762 mmHg 78%
    23:00 +23°C° 0 mm 1 mps 761 mmHg 80%

    23 March, Saturday

    Time Temperature Precipitation Wind Pressure Humidity
    00:00 +23°C° 0 mm 1 mps 761 mmHg 82%
    01:00 +20°C° 0 mm 0 mps 761 mmHg 84%
    02:00 +22°C° 0 mm 1 mps 760 mmHg 85%
    03:00 +22°C° 0 mm 1 mps 760 mmHg 87%
    04:00 +21°C° 0 mm 1 mps 760 mmHg 89%
    05:00 +22°C° 0 mm 1 mps 760 mmHg 88%
    06:00 +22°C° 0 mm 1 mps 760 mmHg 87%
    07:00 +22°C° 0 mm 1 mps 760 mmHg 87%
    08:00 +24°C° 0 mm 1 mps 760 mmHg 79%
    09:00 +26°C° 0 mm 1 mps 760 mmHg 70%
    10:00 +27°C° 0 mm 1 mps 760 mmHg 62%
    11:00 +28°C° 0 mm 1 mps 760 mmHg 58%
    12:00 +29°C° 0 mm 2 mps 759 mmHg 54%
    13:00 +30°C° 0 mm 3 mps 758 mmHg 49%
    14:00 +30°C° 0 mm 3 mps 758 mmHg 52%
    15:00 +30°C° 0 mm 4 mps 757 mmHg 55%
    16:00 +29°C° 0 mm 5 mps 757 mmHg 57%
    17:00 +28°C° 0 mm 5 mps 757 mmHg 64%
    18:00 +27°C° 0 mm 5 mps 757 mmHg 70%
    19:00 +25°C° 0 mm 5 mps 757 mmHg 77%
    20:00 +25°C° 0 mm 5 mps 758 mmHg 79%
    21:00 +25°C° 0 mm 5 mps 758 mmHg 80%
    22:00 +25°C° 0 mm 5 mps 758 mmHg 82%
    23:00 +25°C° 0 mm 4 mps 758 mmHg 83%

    24 March, Sunday

    Time Temperature Precipitation Wind Pressure Humidity
    00:00 +23°C° 0 mm 4 mps 758 mmHg 83%
    01:00 +23°C° 0 mm 4 mps 757 mmHg 84%
    02:00 +24°C° 0 mm 3 mps 757 mmHg 83%
    03:00 +24°C° 0 mm 3 mps 757 mmHg 82%
    04:00 +23°C° 0 mm 2 mps 757 mmHg 82%
    05:00 +24°C° 0.1 mm 3 mps 757 mmHg 80%
    06:00 +24°C° 0.1 mm 3 mps 757 mmHg 79%
    07:00 +24°C° 0.1 mm 3 mps 758 mmHg 78%
    08:00 +26°C° 0 mm 3 mps 757 mmHg 70%
    09:00 +27°C° 0 mm 3 mps 757 mmHg 62%
    10:00 +29°C° 0 mm 3 mps 757 mmHg 54%
    11:00 +32°C° 0 mm 2 mps 757 mmHg 47%
    12:00 +34°C° 0 mm 1 mps 756 mmHg 40%
    13:00 +37°C° 0 mm 1 mps 756 mmHg 33%
    14:00 +37°C° 0 mm 2 mps 756 mmHg 36%
    15:00 +36°C° 0 mm 3 mps 755 mmHg 38%
    16:00 +35°C° 0 mm 4 mps 755 mmHg 41%
    17:00 +33°C° 0 mm 4 mps 755 mmHg 46%
    18:00 +30°C° 0 mm 4 mps 755 mmHg 51%
    19:00 +29°C° 0 mm 3 mps 756 mmHg 56%
    20:00 +28°C° 0.1 mm 3 mps 756 mmHg 60%
    21:00 +28°C° 0.1 mm 2 mps 756 mmHg 64%
    22:00 +27°C° 0.1 mm 1 mps 757 mmHg 67%
    23:00 +27°C° 0.2 mm 2 mps 756 mmHg 67%

    25 March, Monday

    Time Temperature Precipitation Wind Pressure Humidity
    00:00 +26°C° 0.2 mm 2 mps 756 mmHg 68%
    01:00 +25°C° 0.2 mm 2 mps 755 mmHg 68%
    02:00 +25°C° 0 mm 2 mps 755 mmHg 67%
    03:00 +25°C° 0 mm 2 mps 755 mmHg 67%
    04:00 +25°C° 0 mm 2 mps 755 mmHg 66%
    05:00 +25°C° 0.1 mm 2 mps 755 mmHg 68%
    06:00 +25°C° 0.1 mm 2 mps 756 mmHg 70%
    07:00 +25°C° 0.1 mm 2 mps 756 mmHg 73%
    08:00 +26°C° 0.3 mm 3 mps 756 mmHg 70%
    09:00 +27°C° 0.3 mm 4 mps 756 mmHg 68%
    10:00 +28°C° 0.3 mm 5 mps 756 mmHg 65%
    11:00 +30°C° 0 mm 5 mps 756 mmHg 57%
    12:00 +33°C° 0 mm 5 mps 755 mmHg 50%
    13:00 +35°C° 0 mm 5 mps 755 mmHg 42%
    14:00 +34°C° 0 mm 5 mps 755 mmHg 44%
    15:00 +33°C° 0 mm 5 mps 754 mmHg 46%
    16:00 +33°C° 0 mm 5 mps 754 mmHg 48%
    17:00 +30°C° 0 mm 5 mps 755 mmHg 51%
    18:00 +29°C° 0 mm 4 mps 756 mmHg 54%
    19:00 +28°C° 0 mm 4 mps 756 mmHg 57%
    20:00 +27°C° 0 mm 5 mps 757 mmHg 56%
    21:00 +26°C° 0 mm 5 mps 758 mmHg 56%
    22:00 +25°C° 0 mm 5 mps 759 mmHg 55%
    23:00 +23°C° 0 mm 6 mps 759 mmHg 50%
    Show more